Powrót do katalogu

STARLINK-2705

AktywnyŁącznośćVLEO
NORAD 48672·PAYLOAD·🇺🇸 United States

Wystrzelony May 26, 2021 z Cape Canaveral Space Force Station

Loading…

Następne Przeloty (najbliższe 24 godziny)

TLE

ŚwieżeSource: CelesTrak SupGP

Epoka: Sep 14, 2026, 20:17 UTC

1 48672C 21044AL  26257.84562500 -.00021652  00000+0 -69622-3 0  2572
2 48672  53.1589 304.0327 0001094  86.8927 133.1645 15.31714988    14

Śledź STARLINK-2705 w czasie rzeczywistym z AllMySat

Download on the App Store